Location: Edmonton
(53.5500°N, 113.5000°W)
Time: 11:44:14
(UTC-07:00)

N. Korean satellite - Pass Details

Date: 24 October 2019
Orbit: 456 x 506 km, 97.2° (Epoch: 14 November)

Event Time Altitude Azimuth Distance (km) Brightness Sun altitude
Rises 06:28:49 0° 28° (NNE) 2,569 10.7 -16.8°
Reaches altitude 10° 06:31:35 10° 51° (NE) 1,692 10.1 -16.4°
Maximum altitude 06:33:50 16° 89° (E) 1,380 10.0 -16.0°
Drops below altitude 10° 06:36:07 10° 128° (SE) 1,699 10.1 -15.7°
Sets 06:38:52 0° 151° (SSE) 2,584 10.6 -15.3°
